Content
SEND FEEDBACK

Daily
Averages
Monthly
Summary
United States of America

ST. LOUIS - SAINT LOUIS UNIVERSITY, MISSOURI


Home > North America > United States > Missouri
Elevation: 177 meters     Latitude: 38 38N     Longitude: 090 14W

WEATHER
 
SELECT A DAY
Number of Records: 186,258;   Date Range: 1/1/95 - 8/30/14
 
SHARE

PRINT THIS DATA

[ ← Previous Day ]
WEATHER ALMANAC - 18 JANUARY, 2013
[ Next Day → ]
[ °F ]   °C
Weather ElementAverageHighLow
Temperature3.1 °C11.1 °C (2:53 pm)-5.6 °C (2:53 am)
Dewpoint-4.8 °C-2.2 °C (10:53 pm)-7.8 °C (5:53 am)
Humidity59.8 %89 % (2:53 am)37 % (2:53 pm)
Barometer1027.8 hPa1033.5 hPa (1:53 am)1021.3 hPa (10:53 pm)
Wind Speed10.6 km/h20.4 km/h (11:53 am)
Wind Gust29.6 km/h (10:53 pm)
Weather ElementAverage
Visibility16.1 km
Wind DirectionSE (130.9 °)

Weather ElementTotal
Precipitation---
Heating Degree Days15.6 (Base 18.3)
Averaged from 22 records on 18 January, 2013
WEATHER CONDITIONS BREAKOUT
WIND DIRECTION BREAKOUT
WEATHER BY HOUR - 18 JANUARY, 2013
[ °F ]   °C
Local TimeTemperatureDewpointHumidityBarometerVisibilityWind DirectionWind SpeedGust SpeedPrecipitationEventsConditions
1:53 AM-5 °C-6.7 °C88 %1033.5 hPa16.1 kmCalmClear
2:53 AM-5.6 °C-7.2 °C89 %1033.5 hPa16.1 kmCalmClear
3:53 AM-5.6 °C-7.2 °C89 %1033.5 hPa16.1 kmCalmClear
4:53 AM-5.6 °C-7.2 °C89 %1033.2 hPa16.1 kmCalmClear
5:53 AM-5.6 °C-7.8 °C85 %1032.8 hPa16.1 kmCalmClear
6:53 AM-3.9 °C-7.8 °C75 %1032.5 hPa16.1 kmCalmClear
7:53 AM-3.3 °C-7.2 °C75 %1032.5 hPa16.1 kmSSW (200°)5.6 km/hClear
8:53 AM0.6 °C-6.1 °C61 %1032.5 hPa16.1 kmSouth (190°)7.4 km/hClear
9:53 AM2.8 °C-5.6 °C54 %1031.8 hPa16.1 kmSouth (190°)14.8 km/hClear
10:53 AM5 °C-5 °C49 %1030.8 hPa16.1 kmSSW (200°)11.1 km/hClear
11:53 AM6.7 °C-4.4 °C45 %1028.8 hPa16.1 kmSouth (170°)20.4 km/hClear
12:53 PM8.3 °C-2.8 °C46 %1027.1 hPa16.1 kmSouth (170°)18.5 km/hClear
1:53 PM10 °C-2.8 °C41 %1025.7 hPa16.1 kmSSE (160°)16.7 km/hClear
2:53 PM11.1 °C-3.3 °C37 %1024.4 hPa16.1 kmSSE (160°)18.5 km/hClear
3:53 PM10.6 °C-3.3 °C38 %1023.7 hPa16.1 kmSouth (170°)18.5 km/hClear
4:53 PM9.4 °C-3.3 °C41 %1023 hPa16.1 kmSouth (180°)14.8 km/hClear
5:53 PM7.8 °C-3.3 °C46 %1023.4 hPa16.1 kmSouth (170°)16.7 km/hClear
6:53 PM7.2 °C-3.9 °C46 %1023 hPa16.1 kmSouth (170°)18.5 km/hClear
7:53 PM5.6 °C-3.3 °C53 %1022.7 hPa16.1 kmSouth (180°)13 km/hClear
8:53 PM4.4 °C-3.3 °C58 %1022 hPa16.1 kmSouth (180°)9.3 km/hClear
9:53 PM5.6 °C-2.8 °C55 %1021.7 hPa16.1 kmSouth (190°)13 km/h25.9 km/hClear
10:53 PM6.1 °C-2.2 °C56 %1021.3 hPa16.1 kmSSW (200°)14.8 km/h29.6 km/hClear
Hourly data recorded from KCPS, located 0 kilometers away from St. Louis - Saint Louis University, Missouri







STORIES FROM OUR PARTNERS